Location: Dos Palmas
(32.4468°N, 116.8732°W)
Time: 05:13:23
(UTC+00:00)

NOSS 3-4 (A) - Pass Details

Date: 20 June 2021
Orbit: 869 x 1343 km, 63.4° (Epoch: 26 July)

Event Time Altitude Azimuth Distance (km) Brightness Sun altitude
Exits shadow 11:17:29 17° 198° (SSW) 2,024 4.7 -15.2°
Maximum altitude 11:21:53 70° 117° (ESE) 929 3.5 -14.5°
Drops below altitude 10° 11:27:49 10° 35° (NE) 2,606 7.0 -13.6°
Sets 11:30:25 0° 33° (NNE) 3,600 8.0 -13.1°
